[[{"header":{"parameterUnit":"m.s-1","parameterCategory":1,"la1":30.2991,"la2":30.254,"lo1":-89.0895,"lo2":-89.0444,"dy":0.0017,"dx":0.0017,"nx":28,"ny":28,"refTime":"2023-04-16T21:00:00:Z","depth":0,"parameterNumber":2,"parameterNumberName":"U-component_of_WINDS"},"data":[0,0,0,0,0,0,0,0,0,0,0,0,0,0,0,0,0,0,0,0,0,0,0,0,0,0,0,0,0,0,0,0,0,0,0,0,0,0,0,0,0,0,0,0,0,0,0,0,0,0,0,0,0,0,0,0,0,0,1.3058,1.306,0,1.321,1.3212,1.3213,1.3206,1.3204,1.3202,1.32,1.3363,1.3369,1.3375,0,0,0,0,0,0,0,0,0,0,0,0,0,1.2771,1.2777,1.3058,1.306,1.3062,1.321,1.3212,1.3214,1.3207,1.3204,1.3201,1.3199,1.3361,1.3368,1.3376,0,0,0,0,0,0,0,0,0,0,0,0,0,1.2907,1.2778,1.3058,1.3076,1.3079,1.3209,1.3212,1.3214,1.3207,1.3204,1.3201,1.3198,1.3358,1.3367,1.3377,1.3501,0,0,1.3406,1.341,0,0,0,0,0,0,0,0,1.2899,1.2918,1.3071,1.3075,1.3079,1.3186,1.317,1.3311,1.3208,1.3159,1.32,1.3196,1.3307,1.3321,1.3356,1.3509,1.3516,1.3407,1.3413,1.3417,1.342,0,0,0,0,0,0,0,1.289,1.2911,1.3118,1.3074,1.3078,1.308,1.3095,1.3197,1.325,1.3163,1.3163,1.318,1.3308,1.3347,1.336,1.3518,1.3407,1.3415,1.3421,1.3425,1.3784,1.3788,0,0,0,0,0,0,1.2875,1.2903,1.3114,1.3123,1.2979,1.3087,1.3105,1.3155,1.3248,1.3259,1.3183,1.3179,1.3333,1.3349,1.3366,1.352,1.3417,1.3426,1.3431,1.3781,1.3785,1.3789,0,0,0,0,0,0,1.2869,1.2894,1.3108,1.3013,1.304,1.3096,1.3152,1.3159,1.3198,1.3263,1.3274,1.3212,1.3331,1.3352,1.3468,1.3526,1.343,1.3439,1.3776,1.3782,1.3787,1.3828,0,0,0,0,0,0,1.2861,1.2892,1.2937,1.3014,1.3045,1.3204,1.3155,1.3165,1.3214,1.3211,1.3294,1.3305,1.333,1.3454,1.3477,1.3537,1.3446,1.3771,1.3779,1.3786,1.3822,1.3834,1.3845,0,0,0,0,0,1.2851,1.2944,1.294,1.2965,1.3103,1.3208,1.3226,1.3251,1.3218,1.3266,1.3309,1.3302,1.3515,1.3466,1.3492,1.3556,1.3768,1.3777,1.3785,1.3817,1.3832,1.3845,0,0,0,0,0,0,1.2875,1.2954,1.2951,1.3071,1.3132,1.3206,1.3267,1.3266,1.334,1.3334,1.3364,1.3383,1.35,1.3539,1.3482,1.3683,1.3638,1.3652,1.3653,1.3668,1.3679,1.3668,1.3454,0,0,0,0,0,1.2894,1.2969,1.3036,1.3135,1.3166,1.3211,1.3258,1.3272,1.3338,1.3365,1.3415,1.3482,1.3564,1.3618,1.3697,1.3827,1.3847,1.3884,1.3896,1.3905,1.3918,1.3993,1.4011,1.3818,1.3818,1.3817,0,0,1.2934,1.2987,1.3033,1.3142,1.3191,1.3272,1.3233,1.332,1.3381,1.3379,1.3491,1.353,1.3607,1.3731,1.3788,1.3768,1.3976,1.3916,1.3923,1.3931,1.4004,1.4022,1.4038,1.3824,1.3822,1.3822,0,0,1.305,1.3096,1.3185,1.3235,1.331,1.334,1.3361,1.3436,1.3462,1.3574,1.3575,1.3649,1.3789,1.3845,1.3892,1.403,1.4028,1.4056,1.4118,1.419,1.4206,1.4219,1.4272,1.429,1.4068,1.4068,1.4068,0,1.3092,1.321,1.3232,1.3319,1.3369,1.3368,1.3461,1.3509,1.3607,1.3643,1.3617,1.3795,1.3846,1.3985,1.4019,1.4055,1.4084,1.4047,1.4201,1.4215,1.4228,1.4279,1.4298,1.4071,1.407,1.407,1.407,0,1.326,1.3343,1.3406,1.3499,1.3555,1.3645,1.3683,1.3738,1.3748,1.3781,1.3898,1.396,1.4052,1.4086,1.4097,1.4227,1.4213,1.4194,1.415,1.4249,1.4297,1.4317,1.4075,1.4074,1.4073,1.4072,0,0,1.3395,1.3498,1.3522,1.3565,1.3648,1.3714,1.3805,1.3894,1.3942,1.401,1.409,1.4209,1.4193,1.4246,1.4263,1.4327,1.4437,1.4301,1.4303,1.4326,1.4588,1.4603,1.4625,1.4435,1.4439,1.4441,1.4583,0,1.3521,1.3679,1.3703,1.3845,1.3923,1.3925,1.4005,1.4066,1.4101,1.4175,1.4214,1.4299,1.427,1.4302,1.4365,1.441,1.449,1.44,1.4513,1.4517,1.4495,1.4649,1.4665,1.4795,1.4601,1.4604,1.4607,0,1.3688,1.3759,1.3909,1.3983,1.4017,1.4088,1.4173,1.4243,1.4314,1.4335,1.4395,1.4404,1.4503,1.4453,1.4591,1.4529,1.4577,1.4607,1.4612,1.4626,1.4569,1.4669,1.4837,1.4858,1.4636,1.4634,1.4632,0,1.3775,1.3908,1.4015,1.4052,1.4141,1.4191,1.4231,1.4299,1.4352,1.4427,1.4462,1.4548,1.4596,1.4664,1.4699,1.4658,1.4836,1.4788,1.4859,1.4858,1.4897,1.4895,1.5078,1.4925,1.4924,1.4924,1.4923,0,1.3915,1.4007,1.4056,1.4122,1.4226,1.4253,1.4357,1.4396,1.4456,1.4533,1.4539,1.4612,1.4651,1.473,1.4758,1.487,1.4891,1.4913,1.492,1.4914,1.4912,1.4947,1.494,1.4929,1.4928,1.4927,1.4926,0,1.403,1.4065,1.4183,1.4257,1.4278,1.4352,1.4418,1.4484,1.4517,1.4614,1.4639,1.4693,1.4787,1.4827,1.4943,1.4962,1.5091,1.509,1.5066,1.5069,1.5139,1.5132,1.5352,1.5384,1.5208,1.5209,1.5211,0,1.4117,1.4188,1.4269,1.432,1.4361,1.4442,1.4496,1.4526,1.4583,1.467,1.4727,1.482,1.4896,1.5046,1.5098,1.5188,1.5191,1.5262,1.5204,1.5197,1.5195,1.5191,1.52,1.5273,1.5274,1.5276,1.5277,0,1.4269,1.4284,1.4359,1.4443,1.4506,1.4573,1.4639,1.4681,1.4723,1.4786,1.4881,1.494,1.5058,1.5152,1.5244,1.5289,1.5292,1.5294,1.5316,1.5312,1.5296,1.5308,1.5097,1.529,1.5288,1.5287,1.5287,1.5286,1.4375,1.4439,1.4507,1.4592,1.4645,1.4707,1.4773,1.4815,1.4893,1.499,1.5004,1.5107,1.5179,1.5304,1.5352,1.5435,1.5418,1.5448,1.5457,1.5464,1.547,1.5281,1.5452,1.5451,1.5451,1.5451,1.5451,0,1.453,1.4574,1.4652,1.4743,1.4811,1.4804,1.4878,1.4936,1.5025,1.5091,1.5166,1.5277,1.5368,1.5428,1.5521,1.5576,1.558,1.56,1.5597,1.5608,1.5479,1.5452,1.5595,1.5595,1.5595,1.5595,1.5595,1.5595,1.4619,1.4727,1.475,1.4886,1.4931,1.5029,1.5072,1.513,1.5184,1.5306,1.5381,1.5418,1.5483,1.5582,1.5667,1.5682,1.5717,1.5739,1.5754,1.5632,1.5617,1.5603,1.5578,1.5746,1.5746,1.5877,1.5878,1.5879]},{"header":{"parameterUnit":"m.s-1","parameterCategory":1,"la1":30.2991,"la2":30.254,"lo1":-89.0895,"lo2":-89.0444,"dy":0.0017,"dx":0.0017,"nx":28,"ny":28,"refTime":"2023-04-16T21:00:00:Z","depth":0,"parameterNumber":3,"parameterNumberName":"V-component_of_WINDS"},"data":[0,0,0,0,0,0,0,0,0,0,0,0,0,0,0,0,0,0,0,0,0,0,0,0,0,0,0,0,0,0,0,0,0,0,0,0,0,0,0,0,0,0,0,0,0,0,0,0,0,0,0,0,0,0,0,0,0,0,-0.0992,-0.0991,0,-0.0896,-0.0895,-0.0894,-0.0929,-0.0931,-0.0933,-0.0935,-0.0838,-0.0834,-0.0829,0,0,0,0,0,0,0,0,0,0,0,0,0,-0.1207,-0.1203,-0.0992,-0.0991,-0.099,-0.0896,-0.0895,-0.0894,-0.0929,-0.0931,-0.0934,-0.0936,-0.084,-0.0834,-0.0829,0,0,0,0,0,0,0,0,0,0,0,0,0,-0.1112,-0.1201,-0.0992,-0.0996,-0.0995,-0.0897,-0.0895,-0.0893,-0.0928,-0.0931,-0.0935,-0.0938,-0.0842,-0.0835,-0.0828,-0.0721,0,0,-0.0807,-0.0804,0,0,0,0,0,0,0,0,-0.1118,-0.1105,-0.0997,-0.0995,-0.0995,-0.0928,-0.0935,-0.0835,-0.0927,-0.0954,-0.0935,-0.0939,-0.0865,-0.0857,-0.0832,-0.0716,-0.0712,-0.0806,-0.0802,-0.0799,-0.0797,0,0,0,0,0,0,0,-0.1124,-0.1109,-0.0954,-0.0995,-0.0994,-0.1003,-0.0993,-0.0916,-0.0893,-0.0952,-0.0954,-0.0942,-0.0866,-0.0838,-0.083,-0.071,-0.0807,-0.08,-0.0796,-0.0793,-0.0501,-0.0498,0,0,0,0,0,0,-0.1131,-0.1114,-0.0957,-0.0951,-0.1065,-0.0996,-0.0985,-0.0946,-0.0894,-0.0889,-0.0939,-0.0944,-0.0849,-0.0838,-0.0826,-0.0696,-0.0799,-0.0793,-0.0789,-0.0505,-0.05,-0.0496,0,0,0,0,0,0,-0.1136,-0.1117,-0.0961,-0.1033,-0.1014,-0.0989,-0.0945,-0.0942,-0.0915,-0.0884,-0.088,-0.0916,-0.0851,-0.0836,-0.0746,-0.0693,-0.079,-0.0783,-0.0509,-0.0503,-0.0498,-0.0435,0,0,0,0,0,0,-0.1142,-0.1118,-0.1077,-0.1032,-0.101,-0.0882,-0.0942,-0.0938,-0.0903,-0.0908,-0.0861,-0.0856,-0.0852,-0.0756,-0.0739,-0.0686,-0.0778,-0.0514,-0.0506,-0.05,-0.0442,-0.0428,-0.0417,0,0,0,0,0,-0.1149,-0.1063,-0.1074,-0.1055,-0.0958,-0.0879,-0.0866,-0.0863,-0.0899,-0.0857,-0.0837,-0.0858,-0.0702,-0.0747,-0.0728,-0.0671,-0.0517,-0.0508,-0.0501,-0.0448,-0.0431,-0.0417,0,0,0,0,0,0,-0.1103,-0.1057,-0.1069,-0.0966,-0.0926,-0.0885,-0.0832,-0.0846,-0.0795,-0.0802,-0.08,-0.0789,-0.0696,-0.0675,-0.0726,-0.0564,-0.0615,-0.0603,-0.0581,-0.0565,-0.0553,-0.0559,-0.0772,0,0,0,0,0,-0.1081,-0.102,-0.0984,-0.0897,-0.0876,-0.0857,-0.0823,-0.0824,-0.0782,-0.0765,-0.0739,-0.0698,-0.064,-0.0602,-0.0547,-0.044,-0.043,-0.0392,-0.0379,-0.0369,-0.0358,-0.0299,-0.0281,-0.047,-0.047,-0.047,0,0,-0.1034,-0.1002,-0.0964,-0.0886,-0.0855,-0.0793,-0.0843,-0.0775,-0.0728,-0.0755,-0.0668,-0.0648,-0.0602,-0.0503,-0.0458,-0.0482,-0.0304,-0.0358,-0.0351,-0.0345,-0.0289,-0.0271,-0.0255,-0.0464,-0.0465,-0.0466,0,0,-0.0917,-0.0887,-0.081,-0.0778,-0.073,-0.0718,-0.07,-0.0656,-0.0643,-0.0556,-0.0575,-0.052,-0.0421,-0.0387,-0.0357,-0.0227,-0.0244,-0.0209,-0.0143,-0.0086,-0.0071,-0.0057,-0.001,0.0007,-0.0199,-0.0199,-0.0198,0,-0.0865,-0.0771,-0.0769,-0.0699,-0.0664,-0.0686,-0.0608,-0.0577,-0.0514,-0.0489,-0.0518,-0.0393,-0.0364,-0.0256,-0.0225,-0.02,-0.0179,-0.0214,-0.0073,-0.006,-0.0047,-0.0002,0.0016,-0.0195,-0.0195,-0.0195,-0.0196,0,-0.0709,-0.0643,-0.0587,-0.0525,-0.0484,-0.041,-0.0398,-0.0357,-0.0362,-0.0347,-0.0258,-0.0224,-0.0162,-0.0137,-0.0141,-0.003,-0.0047,-0.0074,-0.0124,-0.0025,0.0017,0.0034,-0.0189,-0.019,-0.0191,-0.0192,0,0,-0.0559,-0.0496,-0.0475,-0.0447,-0.0396,-0.0345,-0.0273,-0.0212,-0.0176,-0.0133,-0.0071,0.0013,-0.0011,0.0023,0.0022,0.0072,0.0174,0.0039,0.004,0.0064,0.03,0.0321,0.0341,0.0163,0.0166,0.0168,0.0296,0,-0.0436,-0.0308,-0.0305,-0.0187,-0.0126,-0.0146,-0.0083,-0.0045,-0.003,0.0024,0.004,0.0101,0.0063,0.0083,0.0132,0.0152,0.0222,0.0142,0.022,0.0223,0.0211,0.0363,0.0386,0.0505,0.0313,0.0315,0.0317,0,-0.0276,-0.0226,-0.0102,-0.0059,-0.0034,0.0023,0.008,0.0131,0.0174,0.0181,0.022,0.0211,0.0285,0.0231,0.0332,0.0278,0.031,0.0324,0.0329,0.0338,0.0277,0.0377,0.0543,0.0561,0.0343,0.0341,0.0339,0,-0.0177,-0.0079,0.0008,0.0033,0.0085,0.0125,0.0149,0.0188,0.0225,0.0273,0.0297,0.0354,0.0385,0.0429,0.0436,0.0396,0.0538,0.0485,0.0547,0.0547,0.0579,0.0578,0.0754,0.0597,0.0597,0.0597,0.0596,0,-0.004,0.0037,0.0054,0.0107,0.0193,0.0195,0.0279,0.0299,0.0335,0.0392,0.0377,0.043,0.0436,0.0491,0.0497,0.058,0.0594,0.0602,0.0603,0.0605,0.0604,0.0627,0.0619,0.0601,0.06,0.0599,0.0599,0,0.0086,0.01,0.0194,0.0235,0.0248,0.0309,0.0344,0.0395,0.0408,0.0481,0.0498,0.0519,0.0583,0.0594,0.0669,0.0673,0.0774,0.0765,0.076,0.0759,0.0822,0.0816,0.102,0.1048,0.0872,0.0873,0.0875,0,0.0174,0.0233,0.0281,0.0318,0.0344,0.0404,0.0442,0.0446,0.0486,0.0539,0.0584,0.0646,0.0697,0.08,0.0822,0.0879,0.0873,0.094,0.0882,0.0881,0.0876,0.0873,0.0879,0.0952,0.0954,0.0956,0.0957,0,0.0329,0.0333,0.0388,0.0446,0.0491,0.0536,0.0579,0.0611,0.0621,0.0666,0.0732,0.0771,0.0848,0.0911,0.0968,0.0991,0.0976,0.0975,0.0993,0.0996,0.0991,0.0996,0.0793,0.0971,0.0969,0.0968,0.0968,0.0967,0.0439,0.0491,0.0533,0.0595,0.0628,0.0668,0.0719,0.0739,0.0794,0.0858,0.0856,0.0929,0.0969,0.1045,0.1072,0.1128,0.1106,0.1132,0.1138,0.1145,0.1152,0.0981,0.1138,0.1138,0.1137,0.1137,0.1137,0,0.0594,0.062,0.0677,0.0738,0.0787,0.0769,0.0815,0.0857,0.0922,0.0961,0.1011,0.1087,0.1147,0.1174,0.1233,0.1273,0.1268,0.1289,0.1286,0.1292,0.1167,0.1147,0.1292,0.1292,0.1292,0.1292,0.1292,0.1292,0.0681,0.0768,0.0777,0.088,0.0905,0.0977,0.1005,0.1042,0.1074,0.1159,0.121,0.1227,0.1261,0.1322,0.1377,0.1383,0.1406,0.143,0.1434,0.1317,0.1301,0.1286,0.1267,0.1435,0.1435,0.1554,0.1555,0.1556]}]]